TimeAKST,TemperatureF,Dew PointF,Humidity,Sea Level PressureIn,VisibilityMPH,Wind Direction,Wind SpeedMPH,Gust SpeedMPH,PrecipitationIn,Events,Conditions,WindDirDegrees,DateUTC
12:53 AM,21.9,12.9,68,30.00,10.0,WNW,5.8,-,N/A,,Overcast,300,2013-11-11 09:53:00
1:53 AM,21.0,10.9,65,30.06,10.0,NW,8.1,-,N/A,,Overcast,320,2013-11-11 10:53:00
2:53 AM,19.9,10.0,65,30.10,10.0,NNW,6.9,-,N/A,,Overcast,330,2013-11-11 11:53:00
3:53 AM,19.9,10.0,65,30.13,10.0,NNW,6.9,-,N/A,,Overcast,340,2013-11-11 12:53:00
4:53 AM,19.0,8.1,62,30.17,10.0,North,4.6,-,N/A,,Mostly Cloudy,360,2013-11-11 13:53:00
5:53 AM,17.1,10.0,74,30.19,10.0,NW,4.6,-,N/A,,Mostly Cloudy,310,2013-11-11 14:53:00
6:53 AM,18.0,12.0,78,30.21,10.0,Calm,Calm,-,N/A,,Overcast,0,2013-11-11 15:53:00
7:53 AM,19.9,14.0,78,30.23,10.0,Calm,Calm,-,N/A,,Overcast,0,2013-11-11 16:53:00
8:53 AM,19.9,14.0,78,30.25,10.0,Calm,Calm,-,N/A,,Overcast,0,2013-11-11 17:53:00
9:53 AM,19.9,14.0,78,30.27,10.0,North,3.5,-,N/A,,Overcast,10,2013-11-11 18:53:00
10:53 AM,25.0,16.0,69,30.27,10.0,SW,13.8,-,N/A,,Overcast,230,2013-11-11 19:53:00
11:53 AM,26.1,18.0,71,30.27,10.0,Calm,Calm,-,N/A,,Overcast,0,2013-11-11 20:53:00
12:53 PM,28.0,17.1,63,30.27,10.0,WSW,12.7,-,N/A,,Overcast,240,2013-11-11 21:53:00
1:07 PM,28.4,19.4,69,30.27,10.0,WSW,11.5,-,N/A,,Overcast,250,2013-11-11 22:07:00
1:53 PM,28.9,19.0,67,30.27,10.0,West,16.1,20.7,N/A,,Overcast,260,2013-11-11 22:53:00
2:53 PM,28.9,18.0,64,30.27,10.0,WSW,16.1,-,N/A,,Overcast,250,2013-11-11 23:53:00
3:53 PM,28.9,19.9,69,30.26,10.0,West,12.7,-,N/A,,Overcast,260,2013-11-12 00:53:00
4:48 PM,28.4,19.4,69,30.25,10.0,SW,15.0,-,0.00,,Overcast,230,2013-11-12 01:48:00
4:53 PM,28.9,19.9,69,30.25,10.0,SW,16.1,-,N/A,,Overcast,230,2013-11-12 01:53:00
5:16 PM,28.4,19.4,69,30.24,10.0,SW,12.7,-,N/A,,Overcast,230,2013-11-12 02:16:00
5:53 PM,28.0,19.9,72,30.25,10.0,WSW,6.9,-,N/A,,Overcast,250,2013-11-12 02:53:00
6:53 PM,28.9,21.0,72,30.23,10.0,SSW,11.5,-,N/A,,Overcast,200,2013-11-12 03:53:00
7:37 PM,30.2,19.4,64,30.21,10.0,South,9.2,-,N/A,,Overcast,190,2013-11-12 04:37:00
7:53 PM,30.0,21.0,69,30.21,10.0,South,10.4,-,N/A,,Overcast,180,2013-11-12 04:53:00
8:53 PM,30.0,23.0,75,30.19,10.0,SSE,9.2,-,N/A,,Overcast,160,2013-11-12 05:53:00
9:53 PM,30.0,27.0,88,30.17,2.5,SE,12.7,-,0.00,Snow,Light Snow,140,2013-11-12 06:53:00
10:32 PM,30.2,28.4,93,30.15,2.0,SSE,12.7,-,0.02,Snow,Light Snow,160,2013-11-12 07:32:00
10:51 PM,30.2,28.4,93,30.14,1.8,SSE,15.0,-,0.02,Snow,Light Snow,150,2013-11-12 07:51:00
10:53 PM,30.9,28.9,92,30.15,1.5,SSE,12.7,-,0.02,Snow,Light Snow,150,2013-11-12 07:53:00
11:43 PM,30.2,28.4,93,30.13,1.8,SSE,18.4,24.2,0.01,Snow,Light Snow,160,2013-11-12 08:43:00
11:51 PM,30.2,28.4,93,30.13,2.0,SSE,19.6,26.5,0.01,Snow,Light Snow,160,2013-11-12 08:51:00
11:53 PM,30.9,28.9,92,30.13,2.0,SSE,20.7,26.5,0.01,Snow,Light Snow,160,2013-11-12 08:53:00